Time,TemperatureF,DewpointF,PressureIn,WindDirection,WindDirectionDegrees,WindSpeedMPH,WindSpeedGustMPH,Humidity,HourlyPrecipIn,Conditions,Clouds,dailyrainin,SolarRadiationWatts/m^2,SoftwareType,DateUTC
2013-04-27 00:21:00,25.0,18.0,-100.00,ESE,108,1.0,2.0,75,0.00,,,0.00,0.000000,,2013-04-27 08:21:00,
2013-04-27 00:33:00,25.0,18.0,-100.00,ESE,108,1.0,2.0,75,0.00,,,0.00,0.000000,,2013-04-27 08:33:00,
2013-04-27 00:41:00,25.0,18.0,-100.00,ESE,108,1.0,2.0,75,0.00,,,0.00,0.000000,,2013-04-27 08:41:00,
2013-04-27 00:51:00,25.0,18.0,-100.00,ESE,108,1.0,2.0,75,0.00,,,0.00,0.000000,,2013-04-27 08:51:00,
2013-04-27 01:21:00,24.0,18.0,-100.00,ESE,103,1.0,2.0,79,0.00,,,0.00,0.000000,,2013-04-27 09:21:00,
2013-04-27 01:33:00,24.0,18.0,-100.00,ESE,103,1.0,2.0,79,0.00,,,0.00,0.000000,,2013-04-27 09:33:00,
2013-04-27 01:42:00,24.0,18.0,-100.00,ESE,103,1.0,2.0,79,0.00,,,0.00,0.000000,,2013-04-27 09:42:00,
2013-04-27 01:53:00,24.0,18.0,-100.00,ESE,103,1.0,2.0,79,0.00,,,0.00,0.000000,,2013-04-27 09:53:00,
2013-04-27 02:22:00,22.0,17.0,-100.00,ESE,107,0.0,2.0,80,0.00,,,0.00,0.000000,,2013-04-27 10:22:00,
2013-04-27 02:32:00,22.0,17.0,-100.00,ESE,107,0.0,2.0,80,0.00,,,0.00,0.000000,,2013-04-27 10:32:00,
2013-04-27 02:42:00,22.0,17.0,-100.00,ESE,107,0.0,2.0,80,0.00,,,0.00,0.000000,,2013-04-27 10:42:00,
2013-04-27 02:52:00,22.0,17.0,-100.00,ESE,107,0.0,2.0,80,0.00,,,0.00,0.000000,,2013-04-27 10:52:00,
2013-04-27 03:22:00,20.0,16.0,-100.00,East,100,0.0,2.0,83,0.00,,,0.00,0.000000,,2013-04-27 11:22:00,
2013-04-27 03:41:00,20.0,16.0,-100.00,East,100,0.0,2.0,83,0.00,,,0.00,0.000000,,2013-04-27 11:41:00,
2013-04-27 03:52:00,20.0,16.0,-100.00,East,100,0.0,2.0,83,0.00,,,0.00,0.000000,,2013-04-27 11:52:00,
2013-04-27 04:21:00,18.0,14.0,-100.00,NE,44,0.0,1.0,84,0.00,,,0.00,0.000000,,2013-04-27 12:21:00,
2013-04-27 04:42:00,18.0,14.0,-100.00,NE,44,0.0,1.0,84,0.00,,,0.00,0.000000,,2013-04-27 12:42:00,
2013-04-27 04:51:00,18.0,14.0,-100.00,NE,44,0.0,1.0,84,0.00,,,0.00,0.000000,,2013-04-27 12:51:00,
2013-04-27 05:21:00,17.0,13.0,-100.00,East,98,1.0,2.0,85,-99.99,,,0.00,0.000000,,2013-04-27 13:21:00,
2013-04-27 06:21:00,16.0,12.0,-100.00,East,94,1.0,2.0,85,-99.99,,,0.00,0.000000,,2013-04-27 14:21:00,
2013-04-27 07:21:00,17.0,14.0,-100.00,East,85,1.0,2.0,86,-99.99,,,0.00,10.000000,,2013-04-27 15:21:00,
2013-04-27 07:33:00,17.0,14.0,-100.00,East,85,1.0,2.0,86,-99.99,,,0.00,10.000000,,2013-04-27 15:33:00,
2013-04-27 08:22:00,23.0,18.0,-100.00,East,100,0.0,2.0,82,-99.99,,,0.00,59.000000,,2013-04-27 16:22:00,
2013-04-27 08:32:00,23.0,18.0,-100.00,East,100,0.0,2.0,82,-99.99,,,0.00,59.000000,,2013-04-27 16:32:00,
2013-04-27 08:42:00,23.0,18.0,-100.00,East,100,0.0,2.0,82,-99.99,,,0.00,59.000000,,2013-04-27 16:42:00,
2013-04-27 08:52:00,23.0,18.0,-100.00,East,100,0.0,2.0,82,-99.99,,,0.00,59.000000,,2013-04-27 16:52:00,
2013-04-27 09:22:00,32.0,22.0,-100.00,NE,39,1.0,3.0,67,0.00,,,0.00,125.000000,,2013-04-27 17:22:00,
2013-04-27 09:31:00,32.0,22.0,-100.00,NE,39,1.0,3.0,67,0.00,,,0.00,125.000000,,2013-04-27 17:31:00,
2013-04-27 09:42:00,32.0,22.0,-100.00,NE,39,1.0,3.0,67,0.00,,,0.00,125.000000,,2013-04-27 17:42:00,
2013-04-27 09:52:00,32.0,22.0,-100.00,NE,39,1.0,3.0,67,0.00,,,0.00,125.000000,,2013-04-27 17:52:00,
2013-04-27 10:22:00,38.0,15.0,-100.00,NNW,348,3.0,7.0,39,0.00,,,0.00,287.000000,,2013-04-27 18:22:00,
2013-04-27 10:32:00,38.0,15.0,-100.00,NNW,348,3.0,7.0,39,0.00,,,0.00,287.000000,,2013-04-27 18:32:00,
2013-04-27 10:41:00,38.0,15.0,-100.00,NNW,348,3.0,7.0,39,0.00,,,0.00,287.000000,,2013-04-27 18:41:00,
2013-04-27 10:51:00,38.0,15.0,-100.00,NNW,348,3.0,7.0,39,0.00,,,0.00,287.000000,,2013-04-27 18:51:00,
2013-04-27 11:21:00,42.0,15.0,-100.00,North,7,3.0,9.0,33,0.00,,,0.00,444.000000,,2013-04-27 19:21:00,
2013-04-27 11:32:00,42.0,15.0,-100.00,North,7,3.0,9.0,33,0.00,,,0.00,444.000000,,2013-04-27 19:32:00,
2013-04-27 11:42:00,42.0,15.0,-100.00,North,7,3.0,9.0,33,0.00,,,0.00,444.000000,,2013-04-27 19:42:00,
2013-04-27 11:52:00,42.0,15.0,-100.00,North,7,3.0,9.0,33,0.00,,,0.00,444.000000,,2013-04-27 19:52:00,
2013-04-27 12:21:00,44.0,12.0,-100.00,NE,49,4.0,8.0,27,0.00,,,0.00,549.000000,,2013-04-27 20:21:00,
2013-04-27 12:32:00,44.0,12.0,-100.00,NE,49,4.0,8.0,27,0.00,,,0.00,549.000000,,2013-04-27 20:32:00,
2013-04-27 12:42:00,44.0,12.0,-100.00,NE,49,4.0,8.0,27,0.00,,,0.00,549.000000,,2013-04-27 20:42:00,
2013-04-27 12:52:00,44.0,12.0,-100.00,NE,49,4.0,8.0,27,0.00,,,0.00,549.000000,,2013-04-27 20:52:00,
2013-04-27 13:21:00,44.0,9.0,-100.00,NNW,345,6.0,17.0,23,0.00,,,0.00,620.000000,,2013-04-27 21:21:00,
2013-04-27 13:32:00,44.0,9.0,-100.00,NNW,345,6.0,17.0,23,0.00,,,0.00,620.000000,,2013-04-27 21:32:00,
2013-04-27 13:42:00,44.0,9.0,-100.00,NNW,345,6.0,17.0,23,0.00,,,0.00,620.000000,,2013-04-27 21:42:00,
2013-04-27 13:53:00,44.0,9.0,-100.00,NNW,345,6.0,17.0,23,0.00,,,0.00,620.000000,,2013-04-27 21:53:00,
2013-04-27 14:22:00,45.0,8.0,-100.00,NNW,337,6.0,16.0,22,0.00,,,0.00,659.000000,,2013-04-27 22:22:00,
2013-04-27 14:32:00,45.0,8.0,-100.00,NNW,337,6.0,16.0,22,0.00,,,0.00,659.000000,,2013-04-27 22:32:00,
2013-04-27 14:42:00,45.0,8.0,-100.00,NNW,337,6.0,16.0,22,0.00,,,0.00,659.000000,,2013-04-27 22:42:00,
2013-04-27 14:52:00,45.0,8.0,-100.00,NNW,337,6.0,16.0,22,0.00,,,0.00,659.000000,,2013-04-27 22:52:00,
2013-04-27 15:22:00,46.0,8.0,-100.00,North,349,7.0,15.0,21,0.00,,,0.00,665.000000,,2013-04-27 23:22:00,
2013-04-27 15:32:00,46.0,8.0,-100.00,North,349,7.0,15.0,21,0.00,,,0.00,665.000000,,2013-04-27 23:32:00,
2013-04-27 15:42:00,46.0,8.0,-100.00,North,349,7.0,15.0,21,0.00,,,0.00,665.000000,,2013-04-27 23:42:00,
2013-04-27 15:52:00,46.0,8.0,-100.00,North,349,7.0,15.0,21,0.00,,,0.00,665.000000,,2013-04-27 23:52:00,
2013-04-27 16:21:00,47.0,10.0,-100.00,North,8,6.0,16.0,22,0.00,,,0.00,635.000000,,2013-04-28 00:21:00,
2013-04-27 16:31:00,47.0,10.0,-100.00,North,8,6.0,16.0,22,0.00,,,0.00,635.000000,,2013-04-28 00:31:00,
2013-04-27 16:42:00,47.0,10.0,-100.00,North,8,6.0,16.0,22,0.00,,,0.00,635.000000,,2013-04-28 00:42:00,
2013-04-27 16:52:00,47.0,10.0,-100.00,North,8,6.0,16.0,22,0.00,,,0.00,635.000000,,2013-04-28 00:52:00,
2013-04-27 17:11:00,47.0,9.0,-100.00,North,8,6.0,18.0,21,-99.99,,,-99.99,,,2013-04-28 01:11:00,
2013-04-27 17:21:00,47.0,9.0,-100.00,North,8,7.0,18.0,21,0.00,,,0.00,570.000000,,2013-04-28 01:21:00,
2013-04-27 17:31:00,47.0,9.0,-100.00,North,8,7.0,18.0,21,0.00,,,0.00,570.000000,,2013-04-28 01:31:00,
2013-04-27 17:41:00,47.0,9.0,-100.00,North,8,7.0,18.0,21,0.00,,,0.00,570.000000,,2013-04-28 01:41:00,
2013-04-27 17:52:00,47.0,9.0,-100.00,North,8,7.0,18.0,21,0.00,,,0.00,570.000000,,2013-04-28 01:52:00,
2013-04-27 18:21:00,46.0,6.0,-100.00,North,358,6.0,17.0,19,0.00,,,0.00,479.000000,,2013-04-28 02:21:00,
2013-04-27 18:32:00,46.0,6.0,-100.00,North,358,6.0,17.0,19,0.00,,,0.00,479.000000,,2013-04-28 02:32:00,
2013-04-27 18:42:00,46.0,6.0,-100.00,North,358,6.0,17.0,19,0.00,,,0.00,479.000000,,2013-04-28 02:42:00,
2013-04-27 18:52:00,46.0,6.0,-100.00,North,358,6.0,17.0,19,0.00,,,0.00,479.000000,,2013-04-28 02:52:00,
2013-04-27 19:21:00,45.0,7.0,-100.00,NNW,330,7.0,16.0,21,0.00,,,0.00,370.000000,,2013-04-28 03:21:00,
2013-04-27 19:42:00,45.0,7.0,-100.00,NNW,330,7.0,16.0,21,0.00,,,0.00,370.000000,,2013-04-28 03:42:00,
2013-04-27 19:53:00,45.0,7.0,-100.00,NNW,330,7.0,16.0,21,0.00,,,0.00,370.000000,,2013-04-28 03:53:00,
2013-04-27 20:22:00,42.0,10.0,-100.00,NW,305,8.0,16.0,27,0.00,,,0.00,252.000000,,2013-04-28 04:22:00,
2013-04-27 20:32:00,42.0,10.0,-100.00,NW,305,8.0,16.0,27,0.00,,,0.00,252.000000,,2013-04-28 04:32:00,
2013-04-27 20:42:00,42.0,10.0,-100.00,NW,305,8.0,16.0,27,0.00,,,0.00,252.000000,,2013-04-28 04:42:00,
2013-04-27 20:52:00,42.0,10.0,-100.00,NW,305,8.0,16.0,27,0.00,,,0.00,252.000000,,2013-04-28 04:52:00,
2013-04-27 21:22:00,38.0,10.0,-100.00,NW,316,8.0,19.0,31,0.00,,,0.00,126.000000,,2013-04-28 05:22:00,
2013-04-27 21:32:00,38.0,10.0,-100.00,NW,316,8.0,19.0,31,0.00,,,0.00,126.000000,,2013-04-28 05:32:00,
2013-04-27 21:42:00,38.0,10.0,-100.00,NW,316,8.0,19.0,31,0.00,,,0.00,126.000000,,2013-04-28 05:42:00,
2013-04-27 21:51:00,38.0,10.0,-100.00,NW,316,8.0,19.0,31,0.00,,,0.00,126.000000,,2013-04-28 05:51:00,
2013-04-27 22:21:00,35.0,9.0,-100.00,NNW,329,6.0,18.0,34,0.00,,,0.00,18.000000,,2013-04-28 06:21:00,
2013-04-27 22:32:00,35.0,9.0,-100.00,NNW,329,6.0,18.0,34,0.00,,,0.00,18.000000,,2013-04-28 06:32:00,
2013-04-27 22:42:00,35.0,9.0,-100.00,NNW,329,6.0,18.0,34,0.00,,,0.00,18.000000,,2013-04-28 06:42:00,
2013-04-27 22:51:00,35.0,9.0,-100.00,NNW,329,6.0,18.0,34,0.00,,,0.00,18.000000,,2013-04-28 06:51:00,
2013-04-27 23:21:00,33.0,9.0,-100.00,NNW,343,4.0,14.0,36,0.00,,,0.00,1.000000,,2013-04-28 07:21:00,
2013-04-27 23:31:00,33.0,9.0,-100.00,NNW,343,4.0,14.0,36,0.00,,,0.00,1.000000,,2013-04-28 07:31:00,
2013-04-27 23:42:00,33.0,9.0,-100.00,NNW,343,4.0,14.0,36,0.00,,,0.00,1.000000,,2013-04-28 07:42:00,
2013-04-27 23:52:00,33.0,9.0,-100.00,NNW,343,4.0,14.0,36,0.00,,,0.00,1.000000,,2013-04-28 07:52:00,